SCP
0 0 0 0 0 0 0 0 0 0 0 0 0 0 0 0 0 0 0 0 0 0 0 0 0 0 0 0 0 0 0 0 0 0 0 0 0 0 0 0 0 0 0
0 0 0 0 0 0 0 0 0 0 0 0 0 0 0 0 0 0 0 0 0 0 0 0 0 0 0 0 0 0 0 0 0 0 0 0 0 0 0 0 0 0 0
0 0 0 0 0 0 0 0 0 0 0 0 0 0 0 0 0 0 0 0 0 0 0 0 0 0 0 0 0 0 0 0 0 0 0 0 0 0 0 0 0 0 0
0 0 0 0 0 0 0 0 0 0 0 0 0 0 0 0 0 0 0 0 0 0 0 0 0 0 0 0 0 0 0 0 0 0 0 0 0 0 0 0 0 0 0
0 0 0 0 0 0 0 0 0 0 0 0 0 0 0 0 0 0 0 0 0 0 0 0 0 0 0 0 0 0 0 0 0 0 0 0 0 0 0 0 0 0 0
0 0 0 0 0 0 0 0 0 0 0 0 0 0 0 0 0 0 0 0 0 0 0 0 0 0 0 0 0 0 0 0 0 0 0 0 0 0 0 0 0 0 0
0 0 0 0 0 0 0 0 0 0 0 0 0 0 0 0 0 0 0 0 0 0 0 0 0 0 0 0 0 0 0 0 0 0 0 0 0 0 0 0 0 0 0
0 0 0 0 0 0 0 0 0 0 0 0 0 0 0 0 0 0 0 0 0 0 0 0 0 0 0 0 0 0 0 0 0 0 0 0 0 0 0 0 0 0 0
0 0 0 0 0 0 0 0 0 0 0 0 0 0 0 0 0 0 0 0 0 0 0 0 0 0 0 0 0 0 0 0 0 0 0 0 0 0 0 0 0 0 0
0 0 0 0 0 0 0 0 0 0 0 0 0 0 0 0 0 0 0 0 0 0 0 0 0 0 0 0 0 0 0 0 0 0 0 0 0 0 0 0 0 0 0
-0 0 0 0 0 0 0 0 0 0 0 0 0 0 0 0 0 0 0 0 0 0 0 0 0 0 0 0 0 0 0 0 0 0 0 0 0 0 0 0 0 0 0
-0 -0 0 0 0 0 0 0 0 0 0 0 0 0 0 0 0 0 0 0 0 0 0 0 0 0 0 0 0 0 0 0 0 0 0 0 0 0 0 0 0 0 0
-0 -0 0 0 0 0 0 0 0 0 0 0 0 0 0 0 0 0 0 0 0 0 0 0 0 0 0 0 0 0 0 0 0 0 0 0 0 0 0 0 0 0 0
-0 -0 -0 -0 0 0 0 0 0 0 0 0 0 0 0 0 0 0 0 0 0 0 0 0 0 0 0 0 0 0 0 0 0 0 0 0 0 0 0 0 0 0 0
0 0 -0 0 0 0 0 0 0 0 0 0 0 0 0 0 0 0 0 0 0 0 0 0 0 0 0 0 0 0 0 0 0 0 0 0 0 0 0 0 0 0 0
0 0 0 0 0 0 0 0 0 0 0 0 0 0 0 0 0 0 0 0 0 0 0 0 0 0 0 0 0 0 0 0 0 0 0 0 0 0 0 0 0 0 0
0 0 0 0 0 0 0 0 0 0 0 0 0 0 0 0 0 0 0 0 0 0 0 0 0 0 0 0 0 0 0 0 0 0 0 0 0 0 0 0 0 0 0
0 0 0 0 0 0 0 0 0 0 0 0 0 0 0 0 0 0 0 0 0 0 0 0 0 0 0 0 0 0 0 0 0 0 0 0 0 0 0 0 0 0 0
0 0 0 0 0 0 0 0 0 0 0 0 0 0 0 0 0 0 0 0 0 0 0 0 0 0 0 0 0 0 0 0 0 0 0 0 0 0 0 0 0 0 0
0 0 0 0 0 0 0 0 0 0 0 0 0 0 0 0 0 0 0 0 0 0 0 0 0 0 0 0 0 0 0 0 0 0 0 0 0 0 0 0 0 0 0
0 0 0 0 0 0 0 0 0 0 0 0 0 0 0 0 0 0 0 0 0 0 0 0 0 0 0 0 0 0 0 0 0 0 0 0 0 0 0 0 0 0 0
0 0 0 0 0 0 0 0 0 0 0 0 0 0 0 0 0 0 0 0 0 0 0 0 0 0 0 0 0 0 0 0 0 0 0 0 0 0 0 0 0 0 0
0 0 0 0 0 0 0 0 0 0 0 0 0 0 0 0 0 0 0 0 0 0 0 0 0 0 0 0 0 0 0 0 0 0 0 0 0 0 0 0 0 0 0
0 0 0 0 0 0 0 0 0 0 0 0 0 0 0 0 0 0 0 0 0 0 0 0 0 0 0 0 0 0 0 0 0 0 0 0 0 0 0 0 0 0 0
-0 0 0 0 0 0 0 0 0 0 0 0 0 0 0 0 0 0 0 0 0 0 0 0 0 0 0 0 0 0 0 0 0 0 0 0 0 0 0 0 0 0 0
-0 -0 -0 0 0 0 0 0 0 0 0 0 0 0 0 0 0 0 0 0 0 0 0 0 0 0 0 0 0 0 0 0 0 0 0 0 0 0 0 0 0 0 0
Wind_Speed_500mb
38 50 57 66 74 80 87 89 90 88 86 86 85 84 80 75 71 73 75 77 78 77 76 73 70 65 65 63 61 60 59 60 56 63 60 66 54 48 51 54 50 50 41
34 34 44 53 63 74 81 85 85 86 86 86 87 85 82 78 75 75 76 77 77 76 74 72 67 62 65 64 59 58 55 57 54 62 56 56 59 52 58 47 47 40 33
40 38 38 43 50 63 72 75 79 81 83 85 86 87 84 82 80 77 76 76 76 74 70 69 68 68 69 65 64 59 57 58 60 54 61 59 58 58 50 41 42 39 31
50 44 43 43 47 51 57 66 70 76 79 85 82 82 82 81 78 77 75 76 74 72 68 68 71 70 69 64 71 56 58 57 57 59 57 56 56 51 42 42 40 36 28
59 55 51 48 47 50 55 59 63 66 73 77 79 82 83 82 79 76 74 74 72 68 71 72 73 73 66 67 56 58 60 60 60 58 54 52 52 43 40 36 38 31 28
67 64 57 54 55 54 55 61 64 68 70 74 78 78 78 79 75 71 69 70 70 74 75 72 70 65 61 55 58 57 56 59 60 50 42 46 44 39 36 36 29 24 24
70 67 62 60 61 59 59 61 66 70 70 73 75 76 76 75 73 74 74 73 73 73 71 67 64 60 61 60 60 59 61 57 51 46 41 37 38 36 34 29 24 24 29
72 70 63 61 63 63 65 66 64 68 73 75 76 77 78 78 75 74 68 68 68 65 63 61 62 61 62 59 56 52 46 46 46 40 33 33 36 36 30 24 24 25 24
68 75 67 61 64 63 67 69 68 68 69 71 74 72 72 70 69 69 65 64 64 65 63 63 65 61 58 54 47 42 41 39 38 39 35 34 35 31 23 23 24 21 18
73 69 74 66 62 65 66 68 74 74 73 72 73 72 72 71 70 69 67 67 69 70 68 65 63 59 54 47 44 40 37 36 38 37 32 29 29 26 22 20 16 16 20
86 76 69 73 74 68 65 69 74 81 81 80 78 77 76 75 73 69 69 68 65 65 65 65 61 54 52 48 46 41 36 37 37 35 30 29 27 25 19 13 11 13 17
94 86 74 70 73 74 67 65 73 84 88 89 86 84 83 79 76 74 72 66 63 65 63 59 55 53 50 47 45 43 42 39 36 33 31 31 28 23 18 13 11 11 12
98 94 85 78 73 70 72 68 72 82 93 96 94 92 90 85 82 78 75 70 68 63 56 54 53 50 48 48 48 46 43 37 36 33 32 30 25 20 17 14 12 11 12
102 95 88 85 80 74 72 75 77 83 92 101 101 98 94 90 87 83 80 77 69 62 60 63 59 55 51 50 49 46 42 38 35 33 31 28 23 19 16 12 11 11 12
97 99 92 85 86 82 77 77 82 85 91 99 104 101 101 100 95 88 86 85 79 74 72 67 66 62 57 53 48 46 43 39 37 33 30 25 21 18 15 11 8 9 10
96 96 94 89 86 84 80 79 80 83 89 95 98 98 96 90 86 84 82 78 77 77 73 72 69 65 60 57 54 50 45 42 38 35 30 25 22 18 12 11 10 10 12
90 94 95 85 81 82 77 74 78 80 84 89 91 94 95 81 73 71 74 75 71 73 75 75 70 66 62 58 54 49 46 41 37 34 29 25 20 16 14 13 12 12 13
79 82 81 81 75 73 74 70 71 76 78 88 85 86 83 73 62 63 70 72 69 68 73 72 68 67 62 55 51 49 44 39 35 29 24 21 17 15 16 16 17 16 15
68 68 64 65 66 67 66 65 69 75 82 84 84 82 77 65 62 69 74 83 85 76 70 66 65 60 53 50 47 42 38 35 31 27 24 21 20 21 20 20 19 18 18
57 51 50 51 55 56 60 61 67 74 79 83 85 86 78 67 69 75 85 84 81 79 74 65 58 51 48 45 43 40 38 34 29 27 24 24 24 24 22 22 21 20 19
52 47 42 43 43 50 56 57 65 68 73 72 71 77 81 82 84 90 92 87 81 72 65 55 52 48 45 43 41 37 33 30 27 29 29 28 27 26 25 24 22 21 20
47 41 35 32 33 35 37 43 50 55 60 65 62 68 77 80 85 86 78 65 61 58 52 50 48 45 42 39 35 32 27 30 33 32 31 30 29 28 27 26 24 23 22
49 43 34 26 22 19 21 23 27 35 41 47 57 58 57 51 51 51 51 50 48 48 47 45 42 40 37 33 28 28 36 36 33 34 34 32 31 31 30 29 27 24 23
58 59 58 52 42 29 18 9 2 10 17 23 28 33 38 39 39 40 40 40 39 40 38 38 36 35 33 32 32 40 40 36 36 37 36 36 35 35 34 32 29 27 25
60 59 57 54 52 48 43 41 37 30 24 19 14 13 18 21 26 28 28 29 29 31 35 40 39 36 39 36 40 39 37 33 35 39 40 39 39 38 37 35 32 30 28
59 55 52 49 48 46 42 39 35 29 25 21 16 12 10 10 14 17 22 28 33 36 37 42 45 45 41 38 38 37 40 40 40 41 42 43 42 41 40 37 35 32 30
Wind_Direction_500mb
273 256 253 249 249 251 250 252 250 249 250 248 249 251 251 250 248 247 247 248 249 251 255 258 258 256 257 257 258 261 261 264 263 273 276 283 282 282 284 289 288 283 283
325 281 265 261 254 250 252 253 254 248 244 246 248 250 251 250 249 246 245 246 248 251 253 248 257 257 255 259 260 259 256 259 259 270 274 276 282 280 282 282 286 282 278
321 316 294 284 268 258 257 255 253 250 246 244 244 248 248 247 246 244 244 246 250 253 253 254 255 255 255 260 261 259 257 257 263 264 271 270 274 276 276 277 286 276 282
321 308 309 301 285 277 268 261 256 251 247 243 238 238 242 244 243 245 244 250 250 253 252 251 252 253 257 257 260 251 257 260 265 264 263 268 269 269 271 283 280 278 278
324 317 307 304 299 284 276 268 260 249 243 242 241 239 242 243 244 245 246 248 249 250 250 251 252 253 256 260 255 259 260 260 261 261 261 262 264 272 278 270 271 278 291
322 321 317 310 302 294 280 268 257 251 248 245 244 244 244 247 248 249 246 246 245 246 248 249 254 252 250 249 253 254 255 256 256 257 255 254 263 263 257 263 270 286 308
319 316 314 313 307 297 288 274 259 253 250 247 246 246 247 248 247 247 243 241 242 244 246 244 246 246 247 246 249 251 252 248 248 249 246 252 250 251 255 256 267 290 295
322 313 308 308 305 302 291 282 271 257 249 247 245 244 245 246 244 244 241 240 242 242 243 241 240 242 247 246 247 247 243 241 242 238 239 239 247 251 248 260 280 282 295
320 323 311 301 300 295 289 284 277 265 255 249 246 244 243 244 243 242 239 237 236 236 236 236 239 241 240 242 238 236 235 233 231 237 235 234 241 245 255 267 266 280 297
320 318 318 303 292 294 290 280 275 267 260 252 248 246 246 246 246 245 242 239 238 238 237 236 234 235 235 229 228 229 231 230 229 231 236 235 236 243 251 254 272 299 323
319 313 312 313 298 286 287 282 269 265 259 255 251 249 247 245 243 241 241 242 239 238 234 233 231 226 224 223 220 222 230 230 224 222 222 227 232 237 240 252 284 304 312
313 311 307 307 307 290 283 279 274 263 257 253 250 247 246 244 241 239 237 235 234 234 235 229 224 218 220 220 216 219 221 222 219 216 216 221 224 228 236 247 267 282 296
305 307 306 302 301 297 285 278 272 262 255 252 249 247 245 242 238 235 232 229 229 227 223 221 218 217 214 212 212 215 217 214 210 206 209 219 221 223 228 239 254 269 291
302 301 302 300 298 296 287 278 269 263 255 252 250 247 247 241 236 232 228 225 223 217 213 212 213 215 213 212 211 213 213 210 208 206 206 209 211 210 221 232 258 296 313
300 299 297 296 294 291 289 282 273 266 260 254 252 251 246 245 241 236 230 225 220 213 210 208 209 208 208 207 205 205 204 203 200 199 199 197 196 203 217 237 268 297 308
298 296 295 296 292 287 285 284 278 270 260 255 253 250 251 250 247 243 234 228 222 214 208 209 209 209 206 205 202 200 200 200 197 192 191 190 196 203 217 240 264 284 299
294 292 291 290 287 284 281 280 277 272 261 254 251 250 247 247 248 243 236 227 221 214 210 209 210 209 206 205 203 200 195 189 186 188 189 192 197 208 230 249 269 280 290
297 293 289 286 284 276 276 277 276 265 256 249 244 243 245 240 236 234 225 218 212 215 214 210 207 205 203 201 199 195 189 188 188 188 192 200 211 226 240 250 256 264 274
307 300 293 286 282 276 278 277 273 264 256 249 245 239 239 233 222 217 218 212 208 208 209 204 203 201 199 197 196 191 188 188 191 198 204 213 224 234 241 248 255 264 275
314 306 294 285 285 286 282 279 268 256 250 245 245 241 225 210 200 199 200 203 204 203 204 202 198 195 192 191 191 191 193 197 203 211 220 227 233 239 244 249 255 263 274
328 316 304 294 283 274 272 271 260 248 242 236 230 225 221 208 198 196 198 199 201 202 200 196 193 188 187 190 193 198 202 208 216 224 229 233 236 240 243 248 254 262 271
347 337 328 313 301 287 268 251 239 231 224 220 209 192 189 191 191 192 191 192 194 196 192 191 188 187 189 194 199 207 213 232 230 234 237 237 239 240 243 248 255 263 273
20 16 8 1 349 321 290 262 241 230 221 211 200 190 187 186 185 187 191 191 190 190 188 188 189 190 194 199 208 229 237 233 234 238 238 240 242 243 246 250 254 261 269
35 40 41 43 42 39 38 45 111 197 184 179 182 182 183 185 186 191 195 195 190 190 190 194 195 197 202 227 234 235 233 234 238 238 238 240 241 244 249 252 257 261 265
30 37 41 44 50 54 57 60 63 68 79 90 107 134 156 163 175 182 183 187 192 199 206 205 209 227 233 229 234 235 235 236 243 244 244 242 242 246 251 254 256 260 264
22 25 29 33 36 37 42 50 54 57 62 66 70 86 119 152 172 186 196 205 210 214 222 231 236 235 230 232 233 236 239 237 242 247 249 247 247 249 252 253 255 258 260
Wind_Speed_850mb
38 50 57 66 74 80 87 89 90 88 86 86 85 84 80 75 71 73 75 77 78 77 76 73 70 65 65 63 61 60 59 60 56 63 60 66 54 48 51 54 50 50 41
34 34 44 53 63 74 81 85 85 86 86 86 87 85 82 78 75 75 76 77 77 76 74 72 67 62 65 64 59 58 55 57 54 62 56 56 59 52 58 47 47 40 33
40 38 38 43 50 63 72 75 79 81 83 85 86 87 84 82 80 77 76 76 76 74 70 69 68 68 69 65 64 59 57 58 60 54 61 59 58 58 50 41 42 39 31
50 44 43 43 47 51 57 66 70 76 79 85 82 82 82 81 78 77 75 76 74 72 68 68 71 70 69 64 71 56 58 57 57 59 57 56 56 51 42 42 40 36 28
59 55 51 48 47 50 55 59 63 66 73 77 79 82 83 82 79 76 74 74 72 68 71 72 73 73 66 67 56 58 60 60 60 58 54 52 52 43 40 36 38 31 28
67 64 57 54 55 54 55 61 64 68 70 74 78 78 78 79 75 71 69 70 70 74 75 72 70 65 61 55 58 57 56 59 60 50 42 46 44 39 36 36 29 24 24
70 67 62 60 61 59 59 61 66 70 70 73 75 76 76 75 73 74 74 73 73 73 71 67 64 60 61 60 60 59 61 57 51 46 41 37 38 36 34 29 24 24 29
72 70 63 61 63 63 65 66 64 68 73 75 76 77 78 78 75 74 68 68 68 65 63 61 62 61 62 59 56 52 46 46 46 40 33 33 36 36 30 24 24 25 24
68 75 67 61 64 63 67 69 68 68 69 71 74 72 72 70 69 69 65 64 64 65 63 63 65 61 58 54 47 42 41 39 38 39 35 34 35 31 23 23 24 21 18
73 69 74 66 62 65 66 68 74 74 73 72 73 72 72 71 70 69 67 67 69 70 68 65 63 59 54 47 44 40 37 36 38 37 32 29 29 26 22 20 16 16 20
86 76 69 73 74 68 65 69 74 81 81 80 78 77 76 75 73 69 69 68 65 65 65 65 61 54 52 48 46 41 36 37 37 35 30 29 27 25 19 13 11 13 17
94 86 74 70 73 74 67 65 73 84 88 89 86 84 83 79 76 74 72 66 63 65 63 59 55 53 50 47 45 43 42 39 36 33 31 31 28 23 18 13 11 11 12
98 94 85 78 73 70 72 68 72 82 93 96 94 92 90 85 82 78 75 70 68 63 56 54 53 50 48 48 48 46 43 37 36 33 32 30 25 20 17 14 12 11 12
102 95 88 85 80 74 72 75 77 83 92 101 101 98 94 90 87 83 80 77 69 62 60 63 59 55 51 50 49 46 42 38 35 33 31 28 23 19 16 12 11 11 12
97 99 92 85 86 82 77 77 82 85 91 99 104 101 101 100 95 88 86 85 79 74 72 67 66 62 57 53 48 46 43 39 37 33 30 25 21 18 15 11 8 9 10
96 96 94 89 86 84 80 79 80 83 89 95 98 98 96 90 86 84 82 78 77 77 73 72 69 65 60 57 54 50 45 42 38 35 30 25 22 18 12 11 10 10 12
90 94 95 85 81 82 77 74 78 80 84 89 91 94 95 81 73 71 74 75 71 73 75 75 70 66 62 58 54 49 46 41 37 34 29 25 20 16 14 13 12 12 13
79 82 81 81 75 73 74 70 71 76 78 88 85 86 83 73 62 63 70 72 69 68 73 72 68 67 62 55 51 49 44 39 35 29 24 21 17 15 16 16 17 16 15
68 68 64 65 66 67 66 65 69 75 82 84 84 82 77 65 62 69 74 83 85 76 70 66 65 60 53 50 47 42 38 35 31 27 24 21 20 21 20 20 19 18 18
57 51 50 51 55 56 60 61 67 74 79 83 85 86 78 67 69 75 85 84 81 79 74 65 58 51 48 45 43 40 38 34 29 27 24 24 24 24 22 22 21 20 19
52 47 42 43 43 50 56 57 65 68 73 72 71 77 81 82 84 90 92 87 81 72 65 55 52 48 45 43 41 37 33 30 27 29 29 28 27 26 25 24 22 21 20
47 41 35 32 33 35 37 43 50 55 60 65 62 68 77 80 85 86 78 65 61 58 52 50 48 45 42 39 35 32 27 30 33 32 31 30 29 28 27 26 24 23 22
49 43 34 26 22 19 21 23 27 35 41 47 57 58 57 51 51 51 51 50 48 48 47 45 42 40 37 33 28 28 36 36 33 34 34 32 31 31 30 29 27 24 23
58 59 58 52 42 29 18 9 2 10 17 23 28 33 38 39 39 40 40 40 39 40 38 38 36 35 33 32 32 40 40 36 36 37 36 36 35 35 34 32 29 27 25
60 59 57 54 52 48 43 41 37 30 24 19 14 13 18 21 26 28 28 29 29 31 35 40 39 36 39 36 40 39 37 33 35 39 40 39 39 38 37 35 32 30 28
59 55 52 49 48 46 42 39 35 29 25 21 16 12 10 10 14 17 22 28 33 36 37 42 45 45 41 38 38 37 40 40 40 41 42 43 42 41 40 37 35 32 30
Wind_Direction_850mb
273 256 253 249 249 251 250 252 250 249 250 248 249 251 251 250 248 247 247 248 249 251 255 258 258 256 257 257 258 261 261 264 263 273 276 283 282 282 284 289 288 283 283
325 281 265 261 254 250 252 253 254 248 244 246 248 250 251 250 249 246 245 246 248 251 253 248 257 257 255 259 260 259 256 259 259 270 274 276 282 280 282 282 286 282 278
321 316 294 284 268 258 257 255 253 250 246 244 244 248 248 247 246 244 244 246 250 253 253 254 255 255 255 260 261 259 257 257 263 264 271 270 274 276 276 277 286 276 282
321 308 309 301 285 277 268 261 256 251 247 243 238 238 242 244 243 245 244 250 250 253 252 251 252 253 257 257 260 251 257 260 265 264 263 268 269 269 271 283 280 278 278
324 317 307 304 299 284 276 268 260 249 243 242 241 239 242 243 244 245 246 248 249 250 250 251 252 253 256 260 255 259 260 260 261 261 261 262 264 272 278 270 271 278 291
322 321 317 310 302 294 280 268 257 251 248 245 244 244 244 247 248 249 246 246 245 246 248 249 254 252 250 249 253 254 255 256 256 257 255 254 263 263 257 263 270 286 308
319 316 314 313 307 297 288 274 259 253 250 247 246 246 247 248 247 247 243 241 242 244 246 244 246 246 247 246 249 251 252 248 248 249 246 252 250 251 255 256 267 290 295
322 313 308 308 305 302 291 282 271 257 249 247 245 244 245 246 244 244 241 240 242 242 243 241 240 242 247 246 247 247 243 241 242 238 239 239 247 251 248 260 280 282 295
320 323 311 301 300 295 289 284 277 265 255 249 246 244 243 244 243 242 239 237 236 236 236 236 239 241 240 242 238 236 235 233 231 237 235 234 241 245 255 267 266 280 297
320 318 318 303 292 294 290 280 275 267 260 252 248 246 246 246 246 245 242 239 238 238 237 236 234 235 235 229 228 229 231 230 229 231 236 235 236 243 251 254 272 299 323
319 313 312 313 298 286 287 282 269 265 259 255 251 249 247 245 243 241 241 242 239 238 234 233 231 226 224 223 220 222 230 230 224 222 222 227 232 237 240 252 284 304 312
313 311 307 307 307 290 283 279 274 263 257 253 250 247 246 244 241 239 237 235 234 234 235 229 224 218 220 220 216 219 221 222 219 216 216 221 224 228 236 247 267 282 296
305 307 306 302 301 297 285 278 272 262 255 252 249 247 245 242 238 235 232 229 229 227 223 221 218 217 214 212 212 215 217 214 210 206 209 219 221 223 228 239 254 269 291
302 301 302 300 298 296 287 278 269 263 255 252 250 247 247 241 236 232 228 225 223 217 213 212 213 215 213 212 211 213 213 210 208 206 206 209 211 210 221 232 258 296 313
300 299 297 296 294 291 289 282 273 266 260 254 252 251 246 245 241 236 230 225 220 213 210 208 209 208 208 207 205 205 204 203 200 199 199 197 196 203 217 237 268 297 308
298 296 295 296 292 287 285 284 278 270 260 255 253 250 251 250 247 243 234 228 222 214 208 209 209 209 206 205 202 200 200 200 197 192 191 190 196 203 217 240 264 284 299
294 292 291 290 287 284 281 280 277 272 261 254 251 250 247 247 248 243 236 227 221 214 210 209 210 209 206 205 203 200 195 189 186 188 189 192 197 208 230 249 269 280 290
297 293 289 286 284 276 276 277 276 265 256 249 244 243 245 240 236 234 225 218 212 215 214 210 207 205 203 201 199 195 189 188 188 188 192 200 211 226 240 250 256 264 274
307 300 293 286 282 276 278 277 273 264 256 249 245 239 239 233 222 217 218 212 208 208 209 204 203 201 199 197 196 191 188 188 191 198 204 213 224 234 241 248 255 264 275
314 306 294 285 285 286 282 279 268 256 250 245 245 241 225 210 200 199 200 203 204 203 204 202 198 195 192 191 191 191 193 197 203 211 220 227 233 239 244 249 255 263 274
328 316 304 294 283 274 272 271 260 248 242 236 230 225 221 208 198 196 198 199 201 202 200 196 193 188 187 190 193 198 202 208 216 224 229 233 236 240 243 248 254 262 271
347 337 328 313 301 287 268 251 239 231 224 220 209 192 189 191 191 192 191 192 194 196 192 191 188 187 189 194 199 207 213 232 230 234 237 237 239 240 243 248 255 263 273
20 16 8 1 349 321 290 262 241 230 221 211 200 190 187 186 185 187 191 191 190 190 188 188 189 190 194 199 208 229 237 233 234 238 238 240 242 243 246 250 254 261 269
35 40 41 43 42 39 38 45 111 197 184 179 182 182 183 185 186 191 195 195 190 190 190 194 195 197 202 227 234 235 233 234 238 238 238 240 241 244 249 252 257 261 265
30 37 41 44 50 54 57 60 63 68 79 90 107 134 156 163 175 182 183 187 192 199 206 205 209 227 233 229 234 235 235 236 243 244 244 242 242 246 251 254 256 260 264
22 25 29 33 36 37 42 50 54 57 62 66 70 86 119 152 172 186 196 205 210 214 222 231 236 235 230 232 233 236 239 237 242 247 249 247 247 249 252 253 255 258 260